GW6178 Weather Reports


time (UTC)temp
C
wind
direction
speed
KPH
gust
KPH
rain 1hr
cm
rain 24hr
cm
rain mn
cm
humidity
%
barometer
mb
20260506165517 10 237 0.0 1.6 0.08 1.42 1.42 99 1009.5
20260506164520 10 288 0.0 6.4 0.03 1.37 1.37 99 1009.6
20260506163538 10 288 1.6 3.2 0.03 1.37 1.37 99 1009.5
20260506162519 10 275 0.0 3.2 0.00 1.35 1.35 99 1009.4
20260506161518 10 0.0 0.0 0.00 1.35 1.35 99 1009.4
20260506160519 10 280 0.0 3.2 0.03 1.35 1.35 99 1009.5
20260506155520 10 0.0 0.0 0.03 1.35 1.35 99 1009.4
20260506154538 10 263 0.0 1.6 0.05 1.35 1.35 99 1009.5
20260506153518 10 286 0.0 1.6 0.05 1.35 1.35 99 1009.5
20260506152517 10 230 0.0 1.6 0.05 1.35 1.35 99 1009.6
20260506151516 10 189 0.0 1.6 0.05 1.35 1.35 99 1009.5
20260506150516 10 276 0.0 1.6 0.03 1.32 1.32 98 1009.5
20260506145518 10 0.0 0.0 0.03 1.32 1.32 98 1009.6
20260506144517 10 212 0.0 1.6 0.00 1.30 1.30 98 1009.5
20260506143518 10 150 0.0 1.6 0.00 1.30 1.30 98 1009.4
20260506142517 10 0.0 0.0 0.00 1.30 1.30 99 1009.5
20260506141517 10 128 0.0 1.6 0.00 1.30 1.30 99 1009.5
20260506140518 10 0.0 0.0 0.00 1.30 1.30 99 1009.5
20260506135539 10 154 0.0 1.6 0.00 1.30 1.30 99 1009.6
20260506134540 10 120 0.0 1.6 0.00 1.30 1.30 99 1009.6
20260506133515 10 116 0.0 1.6 0.00 1.30 1.30 99 1009.5
20260506132519 10 113 0.0 1.6 0.00 1.30 1.30 99 1009.5
20260506131538 10 221 0.0 1.6 0.00 1.30 1.30 99 1009.4
20260506130517 10 225 0.0 3.2 0.00 1.30 1.30 99 1009.5
20260506125518 10 145 0.0 1.6 0.03 1.30 1.30 99 1009.5
20260506124520 10 148 0.0 1.6 0.03 1.30 1.30 99 1009.4
20260506123556 10 109 0.0 1.6 0.03 1.30 1.30 99 1009.4
20260506122518 10 157 0.0 1.6 0.03 1.30 1.30 99 1009.4
20260506121520 10 179 0.0 1.6 0.03 1.30 1.30 99 1009.4
20260506120517 9 100 0.0 1.6 0.03 1.30 1.30 99 1009.3
20260506115517 9 193 0.0 1.6 0.00 1.27 1.27 99 1009.3
20260506114518 9 227 0.0 3.2 0.03 1.27 1.27 99 1009.4
20260506113519 9 233 0.0 3.2 0.03 1.27 1.27 99 1009.3
20260506112516 8 224 0.0 1.6 0.03 1.27 1.27 99 1009.4
20260506111518 8 170 0.0 1.6 0.05 1.27 1.27 99 1009.5
20260506110518 8 91 0.0 1.6 0.05 1.27 1.27 99 1009.3
20260506105518 8 132 0.0 1.6 0.05 1.27 1.27 99 1009.3
20260506104520 8 160 0.0 3.2 0.05 1.24 1.24 99 1009.4
20260506103515 8 217 0.0 1.6 0.05 1.24 1.24 99 1009.3
20260506102517 8 104 0.0 3.2 0.08 1.24 1.24 99 1009.3
20260506101518 8 140 0.0 1.6 0.05 1.22 1.22 99 1009.2
20260506100518 8 175 0.0 1.6 0.05 1.22 1.22 99 1009.3
20260506095520 8 167 0.0 1.6 0.05 1.22 1.22 99 1009.3
20260506094516 8 162 0.0 1.6 0.03 1.19 1.19 99 1009.2
20260506093519 8 331 0.0 1.6 0.03 1.19 1.19 99 1009.1
20260506092516 8 82 0.0 1.6 0.00 1.17 1.17 99 1009.1
20260506091519 8 255 0.0 1.6 0.00 1.17 1.17 99 1009.0
20260506090600 8 153 0.0 3.2 0.00 1.17 1.17 99 1008.9
20260506085516 8 137 0.0 1.6 0.00 1.17 1.17 99 1009.0
20260506084517 8 171 0.0 1.6 0.00 1.17 1.17 99 1008.9
20260506083520 8 285 0.0 3.2 0.00 1.17 1.17 99 1008.9
20260506082535 8 130 1.6 3.2 0.00 1.17 1.17 99 1008.8
20260506081537 8 142 0.0 1.6 0.03 1.17 1.17 99 1008.7
20260506080520 8 135 1.6 3.2 0.05 1.17 1.17 99 1008.7
20260506073516 8 107 0.0 1.6 0.10 1.17 1.17 99 1008.6
20260506072515 8 150 0.0 1.6 0.10 1.17 1.17 99 1008.5
20260506071517 8 294 0.0 3.2 0.10 1.14 1.14 99 1008.7
20260506070516 8 204 0.0 1.6 0.08 1.12 1.12 99 1008.6
20260506061519 8 107 0.0 1.6 0.10 1.04 1.04 99 1008.4
20260506060519 8 262 0.0 1.6 0.13 1.04 1.04 99 1008.2
20260506050518 8 206 0.0 1.6 0.18 0.91 0.91 99 1008.3
20260506044516 9 158 0.0 1.6 0.18 0.86 0.86 99 1008.4
20260506043538 9 108 0.0 3.2 0.18 0.86 0.84 99 1008.4
20260506042520 10 172 0.0 4.8 0.18 0.84 0.81 99 1008.3
20260506041516 10 176 0.0 1.6 0.18 0.81 0.79 99 1008.4
20260506040517 10 140 0.0 1.6 0.15 0.76 0.74 99 1008.5
20260506035517 10 0.0 0.0 0.13 0.74 0.71 99 1008.5
20260506034538 10 108 0.0 3.2 0.13 0.71 0.69 99 1008.5
20260506033518 10 106 0.0 1.6 0.13 0.69 0.66 99 1008.6
20260506032520 10 101 0.0 1.6 0.13 0.66 0.64 99 1008.7
20260506031519 10 115 0.0 1.6 0.13 0.64 0.61 99 1008.7
20260506030537 10 0.0 0.0 0.13 0.61 0.58 99 1008.7
20260506025519 10 0.0 0.0 0.13 0.61 0.58 99 1008.9
20260506024518 10 0.0 0.0 0.15 0.58 0.56 99 1008.9
20260506023515 10 264 0.0 1.6 0.13 0.58 0.53 99 1009.0
20260506022518 10 150 0.0 1.6 0.15 0.56 0.51 99 1009.1
20260506021536 10 0.0 0.0 0.15 0.53 0.48 99 1009.2
20260506015520 10 0.0 0.0 0.18 0.51 0.46 99 1009.2
20260506014515 10 131 0.0 1.6 0.15 0.46 0.41 99 1009.2
20260506013517 10 150 0.0 1.6 0.15 0.46 0.41 99 1009.4
20260506012519 10 164 0.0 1.6 0.13 0.41 0.36 99 1009.3
20260506011516 10 0.0 0.0 0.13 0.38 0.33 99 1009.4
20260506010517 10 97 0.0 1.6 0.13 0.36 0.30 99 1009.4
20260506005519 10 84 0.0 1.6 0.13 0.33 0.28 99 1009.4
20260506004519 10 103 0.0 1.6 0.13 0.30 0.25 99 1009.5
20260506003520 10 215 0.0 1.6 0.13 0.30 0.25 99 1009.6
20260506002520 10 79 0.0 3.2 0.13 0.28 0.23 99 1009.7
20260506001520 10 0.0 0.0 0.13 0.25 0.20 99 1009.8
20260506000517 10 96 0.0 3.2 0.10 0.23 0.18 98 1009.9
20260505235520 10 82 0.0 1.6 0.10 0.20 0.15 98 1010.0
20260505234515 10 188 0.0 1.6 0.10 0.18 0.13 98 1010.1
20260505233517 11 126 0.0 1.6 0.10 0.18 0.13 98 1010.2
20260505232520 11 139 0.0 1.6 0.08 0.15 0.10 98 1010.1
20260505231520 11 149 0.0 1.6 0.08 0.13 0.08 97 1010.3
20260505230518 11 209 0.0 1.6 0.08 0.13 0.08 97 1010.3
20260505225556 11 201 0.0 1.6 0.05 0.10 0.05 97 1010.4
20260505224520 11 166 0.0 1.6 0.03 0.08 0.03 96 1010.4
20260505223558 11 158 0.0 1.6 0.03 0.08 0.03 96 1010.5
20260505222540 11 166 0.0 1.6 0.03 0.08 0.03 95 1010.6
20260505221518 11 144 0.0 3.2 0.00 0.05 0.00 95 1010.6
20260505220519 11 302 0.0 3.2 0.00 0.05 0.00 94 1010.7
20260505215517 11 134 0.0 1.6 0.00 0.05 0.05 94 1010.7
20260505214519 11 192 0.0 3.2 0.00 0.05 0.05 94 1010.7
20260505213520 11 285 0.0 1.6 0.00 0.05 0.05 94 1010.8
20260505212537 11 121 0.0 1.6 0.00 0.05 0.05 94 1010.9
20260505211536 11 118 0.0 3.2 0.00 0.05 0.05 94 1010.9
20260505210517 11 132 0.0 3.2 0.00 0.08 0.05 93 1011.0
20260505205537 11 139 1.6 9.7 0.00 0.08 0.05 93 1011.0
20260505204519 11 98 0.0 4.8 0.00 0.08 0.05 93 1011.1
20260505203518 11 167 0.0 1.6 0.00 0.08 0.05 93 1011.0
20260505202518 12 162 0.0 3.2 0.00 0.10 0.05 93 1010.9
20260505201519 12 50 0.0 1.6 0.00 0.10 0.05 93 1010.9
20260505200516 12 89 0.0 1.6 0.00 0.10 0.05 93 1010.9
20260505195519 12 176 1.6 3.2 0.00 0.13 0.05 92 1010.9
20260505194517 12 62 0.0 3.2 0.00 0.13 0.05 92 1010.8
20260505193518 12 157 0.0 1.6 0.00 0.15 0.05 92 1010.9
20260505192538 12 122 0.0 3.2 0.00 0.15 0.05 92 1010.8
20260505191521 12 67 0.0 1.6 0.00 0.15 0.05 92 1010.9
20260505190536 12 49 0.0 1.6 0.00 0.20 0.05 91 1010.7
20260505185515 12 195 0.0 1.6 0.00 0.33 0.05 91 1010.9
20260505184516 12 96 0.0 3.2 0.00 0.38 0.05 91 1010.9
20260505183515 12 62 0.0 1.6 0.00 0.43 0.05 91 1010.9
20260505182517 12 156 0.0 1.6 0.00 0.46 0.05 91 1011.0
20260505181520 12 81 0.0 3.2 0.00 0.48 0.05 91 1010.9
20260505180518 12 115 0.0 1.6 0.00 0.48 0.05 91 1011.0
20260505175519 13 100 0.0 3.2 0.00 0.51 0.05 92 1011.0
20260505174520 13 81 0.0 1.6 0.00 0.51 0.05 92 1010.8
20260505173518 13 192 0.0 1.6 0.00 0.53 0.05 91 1010.9
20260505172517 13 171 0.0 3.2 0.00 0.61 0.05 91 1011.0
20260505171520 13 136 0.0 1.6 0.00 0.69 0.05 91 1011.0
20260505170535 13 114 0.0 3.2 0.00 0.79 0.05 91 1011.1